Home > Weather > Theni > Past weeks

Flag for India Weather for the Past 2 Weeks in Theni, Tamil Nadu, India

Now
100 °F

Passing clouds.


Feels Like: 98 °F
Forecast: 74 / 102 °F
Wind: 2 mph from East

Location: Coimbatore / Peelamedu

Current Time: Apr 30, 2016 at 4:56:56 PM

Latest Report: Apr 30, 2016 at 4:30 PM


Visibility: 5 mi

Pressure: 29.77 "Hg

Humidity: 21%

Dew Point: 54 °F

Location of TheniLocation

Historic Weather in Theni — Graph

°F

Theni Temperature Yesterday

Maximum temperature yesterday: 100 °F (at 2:30 PM)
Minimum temperature yesterday: 81 °F (at 3:30 AM)
Average temperature yesterday: 90 °F

High & Low Weather Summary for the Past Weeks

 TemperatureHumidityPressure
High102 °F (Apr 20, 4:00 PM)94% (Apr 21, 5:30 AM)29.98 "Hg (Apr 21, 5:30 AM)
Low79 °F (Apr 17, 3:30 AM)22% (Apr 28, 5:00 PM)29.65 "Hg (Apr 24, 4:30 PM)
Average89 °F59%29.84 "Hg
* Reported Apr 15 3:30 PM — Apr 30 3:30 PM, Theni, Weather by CustomWeather, © 2016

Note: Actual official high and low records may vary slightly from our data, if they occured in-between our weather recording intervals... More about our weather records

Advertising

Theni Weather History for the Previous 24 Hours

Scroll right to see more
 ConditionsComfort  
Time TempWeatherWind HumidityBarometerVisibility
3:30 PM
Sat, Apr 30
100 °FPassing clouds.6 mph22%29.80 "Hg5 mi
3:00 PM100 °FPassing clouds.No wind25%29.80 "Hg5 mi
2:30 PM100 °FPassing clouds.3 mph25%29.80 "Hg5 mi
2:00 PM99 °FPassing clouds.7 mph29%29.80 "Hg4 mi
1:30 PM97 °FScattered clouds.No wind30%29.83 "Hg4 mi
1:00 PM97 °FScattered clouds.6 mph32%29.83 "Hg4 mi
12:30 PM95 °FScattered clouds.5 mph41%29.86 "Hg4 mi
12:00 PM95 °FScattered clouds.5 mph41%29.89 "Hg4 mi
11:30 AM93 °FScattered clouds.2 mph47%29.89 "Hg4 mi
11:00 AM93 °FScattered clouds.2 mph47%29.89 "Hg4 mi
10:30 AM93 °FPassing clouds.3 mph47%29.92 "Hg4 mi
10:00 AM91 °FPassing clouds.2 mph52%29.92 "Hg4 mi
9:30 AM90 °FHaze.2 mph55%29.92 "Hg3 mi
9:00 AM88 °FHaze.2 mph59%29.92 "Hg3 mi
8:30 AM84 °FHaze.2 mph70%29.92 "Hg2 mi
8:00 AM84 °FHaze.2 mph70%29.92 "Hg2 mi
7:30 AM82 °FFog.2 mph79%29.92 "Hg2 mi
7:00 AM81 °FFog.No wind89%29.89 "Hg2 mi
6:30 AM81 °FFog.No wind89%29.89 "Hg2 mi
5:00 AM81 °FPassing clouds.2 mph84%29.86 "Hg4 mi
4:30 AM81 °FPassing clouds.2 mph84%29.86 "Hg4 mi
4:00 AM81 °FPassing clouds.2 mph79%29.86 "Hg4 mi
3:30 AM81 °FPassing clouds.3 mph84%29.86 "Hg4 mi
3:00 AM81 °FPassing clouds.3 mph84%29.86 "Hg4 mi
2:30 AM81 °FPassing clouds.5 mph84%29.86 "Hg4 mi
2:00 AM82 °FPassing clouds.3 mph79%29.86 "Hg4 mi
1:30 AM82 °FPassing clouds.5 mph79%29.86 "Hg4 mi
12:30 AM82 °FPassing clouds.5 mph79%29.89 "Hg4 mi
12:00 AM82 °FPassing clouds.7 mph79%29.89 "Hg4 mi
11:30 PM
Fri, Apr 29
84 °FPassing clouds.5 mph74%29.89 "Hg4 mi
11:00 PM84 °FPassing clouds.7 mph74%29.89 "Hg4 mi
10:30 PM84 °FPassing clouds.8 mph74%29.89 "Hg4 mi
10:00 PM86 °FPassing clouds.5 mph70%29.89 "Hg4 mi
9:30 PM86 °FPassing clouds.8 mph70%29.86 "Hg4 mi
9:00 PM88 °FPassing clouds.6 mph66%29.86 "Hg4 mi
8:30 PM88 °FPassing clouds.5 mph66%29.86 "Hg4 mi
8:00 PM90 °FPassing clouds.12 mph59%29.86 "Hg4 mi
7:30 PM91 °FPassing clouds.8 mph56%29.83 "Hg4 mi
7:00 PM95 °FPassing clouds.5 mph32%29.83 "Hg4 mi
6:30 PM97 °FPassing clouds.5 mph30%29.80 "Hg5 mi
6:00 PM99 °FScattered clouds.5 mph29%29.80 "Hg5 mi
5:30 PM100 °FScattered clouds.6 mph27%29.80 "Hg5 mi
5:00 PM100 °FPassing clouds.2 mph27%29.80 "Hg5 mi
4:30 PM100 °FPassing clouds.6 mph27%29.80 "Hg5 mi
4:00 PM100 °FPassing clouds.5 mph27%29.80 "Hg5 mi
Weather by CustomWeather, © 2016

See weather overviewHow to use our weather pages